map of KEKQ home
KEKQ - Airport
Location
City:  Monticello, Kentucky, United States
Name:Wayne County Airport
ICAO:KEKQ
FAA LID:EKQ

Details
Type:Airport (Airfield)
Use:Public/Civil
Latitude:3651'19"N (36.855278)
Longitude:8451'22"W (-84.856138)
Datum:WGS 1984
Elevation:962 ft (293 m)
Variation:5.33W (WMM2015 magnetic declination)
-0.07 annual change
Runways:1
Longest:4000 × 75 ft (1219 × 23 m), paved

Weather
METAR:KEKQ 160856Z AUTO 20008G14KT 070V260 10SM OVC010 01/M01 A3027 RMK AO2 SLP279 6//// T00061011 53003 PNO $

Related Locations
Nearby:
Farthest:YAUG: 11305 mi / 18194 km
Augusta [Augusta Airport], WA, AU

Find:

   beyond  
but within

Other Information
Maps:
NOTAMs:
Links:
Sources:

  
  • flag of United States
  • flag of Kentucky
  

Sectional Chart

Flight Planning
at skyvector.com

Satellite Image

Google Maps Satellite view

 

Copyright © 2004-2019 Karl L. Swartz. All rights reserved.
The Great Circle Mapper name and logo are trademarks of the Great Circle Mapper.
All other trademarks mentioned herein belong to their respective owners.
Please see credits for attibutions and further copyright information.

  Follow gcmap on Facebook Follow gcmap on Twitter Follow gcmap on Google+ GCmap on LinkedIn

hCard Microformat

Geo Microformat